DW0677 Weather Reports


Display with metric or nautical units.
time (UTC)temp
F
wind
direction
speed
MPH
gust
MPH
rain 1hr
in
rain 24hr
in
rain mn
in
humidity
%
barometer
mb
20260505124908 54 297 0.0 0.0 0.00 0.00 0.00 88 1014.8
20260505124347 54 297 0.0 2.0 0.00 0.00 0.00 88 1014.7
20260505123829 54 297 0.0 2.0 0.00 0.00 0.00 88 1014.7
20260505123348 54 297 0.0 2.0 0.00 0.00 0.00 88 1014.7
20260505122907 54 297 0.0 0.0 0.00 0.00 0.00 88 1014.7
20260505122325 54 297 0.0 1.0 0.00 0.00 0.00 88 1014.7
20260505121849 54 297 0.0 1.0 0.00 0.00 0.00 88 1014.7
20260505121328 54 297 0.0 0.0 0.00 0.00 0.00 88 1014.7
20260505120832 54 297 0.0 0.0 0.00 0.00 0.00 88 1014.7
20260505120337 54 297 0.0 0.0 0.00 0.00 0.00 88 1014.6
20260505115839 54 297 0.0 0.0 0.00 0.00 0.00 88 1014.6
20260505115342 54 297 0.0 0.0 0.00 0.00 0.00 88 1014.6
20260505114829 54 297 0.0 0.0 0.00 0.00 0.00 88 1014.6
20260505114343 54 297 0.0 0.0 0.00 0.00 0.00 88 1014.6
20260505113842 54 297 0.0 0.0 0.00 0.00 0.00 87 1014.6
20260505113342 54 297 0.0 0.0 0.00 0.00 0.00 87 1014.6
20260505112840 54 297 0.0 0.0 0.00 0.00 0.00 86 1014.5
20260505112344 54 297 0.0 0.0 0.00 0.00 0.00 85 1014.6
20260505111903 54 297 0.0 0.0 0.00 0.00 0.00 85 1014.5
20260505111402 54 297 0.0 0.0 0.00 0.00 0.00 85 1014.6
20260505110840 54 297 0.0 0.0 0.00 0.00 0.00 85 1014.5
20260505110341 54 297 0.0 0.0 0.00 0.00 0.00 85 1014.5
20260505101907 54 297 0.0 0.0 0.00 0.00 0.00 85 1014.1
20260505101327 54 297 0.0 0.0 0.00 0.00 0.00 85 1014.1
20260505100832 54 297 0.0 0.0 0.00 0.00 0.00 85 1014.1
20260505100334 54 297 0.0 1.0 0.00 0.00 0.00 85 1014.1
20260505095835 54 297 0.0 1.0 0.00 0.00 0.00 84 1014.1
20260505095334 54 297 0.0 2.0 0.00 0.00 0.00 84 1014.1
20260505094838 54 297 0.0 0.0 0.00 0.00 0.00 85 1014.1
20260505094338 54 297 0.0 2.0 0.00 0.00 0.00 84 1014.0
20260505093837 54 297 0.0 2.0 0.00 0.00 0.00 84 1014.0
20260505093345 54 297 0.0 2.0 0.00 0.00 0.00 84 1014.1
20260505092846 54 297 0.0 2.0 0.00 0.00 0.00 85 1014.0
20260505092346 54 297 0.0 0.0 0.00 0.00 0.00 85 1014.0
20260505091825 54 297 0.0 0.0 0.00 0.00 0.00 85 1013.9
20260505091328 54 297 0.0 0.0 0.00 0.00 0.00 85 1013.9
20260505090830 54 297 0.0 0.0 0.00 0.00 0.00 85 1013.8
20260505090335 54 297 0.0 0.0 0.00 0.00 0.00 85 1013.7
20260505085834 54 297 0.0 0.0 0.00 0.00 0.00 85 1013.7
20260505085338 54 297 0.0 2.0 0.00 0.00 0.00 85 1013.6
20260505084841 54 297 0.0 2.0 0.00 0.00 0.00 85 1013.7
20260505084341 54 297 0.0 2.0 0.00 0.00 0.00 85 1013.7
20260505083824 54 297 0.0 2.0 0.00 0.00 0.00 84 1013.6
20260505083347 54 297 0.0 2.0 0.00 0.00 0.00 84 1013.5
20260505082825 54 297 0.0 2.0 0.00 0.00 0.00 84 1013.5
20260505082347 54 297 0.0 2.0 0.00 0.00 0.00 84 1013.5
20260505081845 54 297 0.0 2.0 0.00 0.00 0.00 84 1013.5
20260505081344 54 297 0.0 2.0 0.00 0.00 0.00 84 1013.5
20260505080844 54 297 0.0 2.0 0.00 0.00 0.00 84 1013.5
20260505080405 54 297 0.0 2.0 0.00 0.00 0.00 84 1013.5
20260505075825 54 297 0.0 1.0 0.00 0.00 0.00 84 1013.5
20260505075328 54 297 0.0 2.0 0.00 0.00 0.00 84 1013.5
20260505074831 54 297 0.0 2.0 0.00 0.00 0.00 84 1013.4
20260505074338 54 297 0.0 2.0 0.00 0.00 0.00 84 1013.4
20260505073842 54 297 0.0 2.0 0.00 0.00 0.00 83 1013.3
20260505073341 54 297 0.0 2.0 0.00 0.00 0.00 84 1013.2
20260505072839 54 297 0.0 2.0 0.00 0.00 0.00 84 1013.1
20260505072338 54 297 0.0 2.0 0.00 0.00 0.00 84 1013.0
20260505071837 54 297 0.0 1.0 0.00 0.00 0.00 83 1013.0
20260505071336 55 297 0.0 1.0 0.00 0.00 0.00 82 1012.9
20260505070836 55 297 0.0 2.0 0.00 0.00 0.00 82 1012.9
20260505070356 55 297 0.0 2.0 0.00 0.00 0.00 82 1012.8
20260505065847 55 297 0.0 2.0 0.00 0.00 0.00 82 1012.8
20260505065406 55 297 0.0 2.0 0.00 0.00 0.00 82 1012.7
20260505064827 55 297 0.0 2.0 0.00 0.00 0.00 81 1012.7
20260505064334 55 297 0.0 2.0 0.00 0.00 0.00 81 1012.5
20260505063900 56 288 0.0 2.0 0.00 0.00 0.00 81 1012.6
20260505063342 56 288 0.0 2.0 0.00 0.00 0.00 80 1012.5
20260505062842 56 288 0.0 2.0 0.00 0.00 0.00 80 1012.4
20260505062406 56 287 0.0 2.0 0.00 0.00 0.00 80 1012.4
20260505061904 57 287 0.0 2.0 0.00 0.00 0.00 78 1012.3
20260505061343 57 287 0.0 2.0 0.00 0.00 0.00 78 1012.1
20260505060828 57 286 0.0 2.0 0.00 0.00 0.00 78 1012.1
20260505060329 57 280 0.0 2.0 0.00 0.00 0.00 77 1012.0
20260505055849 58 280 1.0 2.0 0.00 0.00 0.00 77 1012.0
20260505055333 58 280 0.0 2.0 0.00 0.00 0.00 76 1012.0
20260505054857 58 275 1.0 2.0 0.00 0.00 0.00 76 1011.9
20260505054337 59 295 0.0 2.0 0.00 0.00 0.00 75 1011.9
20260505053857 59 324 0.0 2.0 0.00 0.00 0.00 75 1011.9
20260505053337 59 324 0.0 2.0 0.00 0.00 0.00 75 1011.8
20260505052836 59 324 0.0 2.0 0.00 0.00 0.00 75 1011.8
20260505052337 60 324 0.0 2.0 0.00 0.00 0.00 74 1011.8
20260505051840 60 324 0.0 2.0 0.00 0.00 0.00 74 1011.8
20260505051342 60 324 0.0 2.0 0.00 0.00 0.00 72 1011.7
20260505050825 61 324 0.0 2.0 0.00 0.00 0.00 72 1011.7
20260505050334 61 324 0.0 2.0 0.00 0.00 0.00 72 1011.7
20260505041347 63 324 0.0 2.0 0.00 0.00 0.00 68 1011.0
20260505040847 64 324 1.0 2.0 0.00 0.00 0.00 68 1010.9
20260505040330 64 329 0.0 2.0 0.00 0.00 0.00 67 1010.8
20260505035832 64 329 0.0 2.0 0.00 0.00 0.00 67 1010.7
20260505035336 64 329 0.0 2.0 0.00 0.00 0.00 67 1010.6
20260505034836 64 330 0.0 2.0 0.00 0.00 0.00 67 1010.6
20260505034340 65 329 0.0 2.0 0.00 0.00 0.00 67 1010.5
20260505033841 65 329 1.0 2.0 0.00 0.00 0.00 67 1010.4
20260505033404 65 329 0.0 2.0 0.00 0.00 0.00 66 1010.4
20260505032846 66 329 0.0 2.0 0.00 0.00 0.00 65 1010.3
20260505032328 66 329 0.0 4.0 0.00 0.00 0.00 64 1010.2
20260505031831 67 333 0.0 2.0 0.00 0.00 0.00 63 1010.1
20260505031331 68 307 0.0 2.0 0.00 0.00 0.00 63 1010.0
20260505030835 69 295 0.0 3.0 0.00 0.00 0.00 68 1009.9
20260505030336 70 272 1.0 3.0 0.00 0.00 0.00 65 1009.7
20260505025834 70 200 0.0 2.0 0.00 0.00 0.00 65 1009.6
20260505025335 70 177 1.0 2.0 0.00 0.00 0.00 65 1009.5
20260505024854 70 178 0.0 2.0 0.00 0.00 0.00 64 1009.5
20260505024340 71 224 1.0 4.0 0.00 0.00 0.00 63 1009.5
20260505023839 71 141 1.0 4.0 0.00 0.00 0.00 62 1009.4
20260505023400 71 182 1.0 5.0 0.00 0.00 0.00 63 1009.4
20260505022839 71 170 1.0 2.0 0.00 0.00 0.00 63 1009.4
20260505022347 71 215 0.0 2.0 0.00 0.00 0.00 63 1009.4
20260505021846 71 232 1.0 4.0 0.00 0.00 0.00 62 1009.4
20260505021347 71 170 1.0 4.0 0.00 0.00 0.00 62 1009.4
20260505020847 72 168 2.0 5.0 0.00 0.00 0.00 61 1009.4
20260505020347 72 169 2.0 7.0 0.00 0.00 0.00 61 1009.4
20260505015845 72 164 2.0 7.0 0.00 0.00 0.00 60 1009.4
20260505015345 72 193 2.0 5.0 0.00 0.00 0.00 61 1009.5
20260505014845 72 176 1.0 4.0 0.00 0.00 0.00 60 1009.4
20260505014327 72 174 2.0 6.0 0.00 0.00 0.00 59 1009.4
20260505013831 73 224 2.0 4.0 0.00 0.00 0.00 59 1009.5
20260505013337 73 250 1.0 3.0 0.00 0.00 0.00 58 1009.5
20260505012837 73 224 2.0 5.0 0.00 0.00 0.00 58 1009.6
20260505012341 73 176 1.0 4.0 0.00 0.00 0.00 59 1009.6
20260505011824 72 264 2.0 4.0 0.00 0.00 0.00 59 1009.6
20260505011350 72 261 1.0 2.0 0.00 0.00 0.00 59 1009.6
20260505010829 73 253 1.0 6.0 0.00 0.00 0.00 57 1009.7
20260505010330 73 178 3.0 6.0 0.00 0.00 0.00 58 1009.7
20260505005829 72 184 1.0 3.0 0.00 0.00 0.00 59 1009.7
20260505005330 72 288 0.0 2.0 0.00 0.00 0.00 61 1009.8
20260505004829 73 294 2.0 4.0 0.00 0.00 0.00 58 1009.7
20260505004335 73 230 2.0 5.0 0.00 0.00 0.00 56 1009.8
20260505003836 73 176 1.0 2.0 0.00 0.00 0.00 56 1009.8
20260505003338 72 207 0.0 3.0 0.00 0.00 0.00 57 1009.9
20260505002857 72 135 1.0 3.0 0.00 0.00 0.00 56 1010.0
20260505002339 72 168 1.0 4.0 0.00 0.00 0.00 56 1009.9
20260505001838 72 172 2.0 4.0 0.00 0.00 0.00 56 1009.9
20260505001336 72 261 1.0 3.0 0.00 0.00 0.00 56 1010.0
20260505000836 72 249 1.0 5.0 0.00 0.00 0.00 57 1010.0
20260505000341 72 168 1.0 5.0 0.00 0.00 0.00 56 1010.0
20260504235839 72 203 2.0 4.0 0.00 0.00 0.00 56 1010.1
20260504235339 72 251 1.0 6.0 0.00 0.00 0.00 57 1010.1
20260504234828 71 155 3.0 6.0 0.00 0.00 0.00 57 1010.2
20260504234330 71 174 2.0 6.0 0.00 0.00 0.00 57 1010.2
20260504233830 71 158 1.0 3.0 0.00 0.00 0.00 57 1010.2
20260504233332 71 191 1.0 3.0 0.00 0.00 0.00 57 1010.2
20260504232835 71 195 1.0 4.0 0.00 0.00 0.00 57 1010.2
20260504232342 71 192 2.0 4.0 0.00 0.00 0.00 56 1010.3
20260504231823 71 259 1.0 4.0 0.00 0.00 0.00 57 1010.3
20260504231330 71 153 2.0 4.0 0.00 0.00 0.00 57 1010.3
20260504230848 71 110 1.0 4.0 0.00 0.00 0.00 57 1010.3
20260504230334 71 259 2.0 6.0 0.00 0.00 0.00 58 1010.4
20260504225856 70 106 3.0 6.0 0.00 0.00 0.00 59 1010.5
20260504225334 70 178 3.0 7.0 0.00 0.00 0.00 57 1010.6
20260504224855 71 205 2.0 5.0 0.00 0.00 0.00 59 1010.6
20260504224337 70 95 2.0 7.0 0.00 0.00 0.00 61 1010.6
20260504223837 70 169 3.0 7.0 0.00 0.00 0.00 58 1010.8
20260504223339 70 183 1.0 4.0 0.00 0.00 0.00 60 1010.8
20260504222837 69 190 1.0 4.0 0.00 0.00 0.00 59 1010.9
20260504222336 69 280 0.0 4.0 0.00 0.00 0.00 61 1011.0
20260504221856 69 276 1.0 4.0 0.00 0.00 0.00 58 1011.1
20260504221339 70 215 1.0 4.0 0.00 0.00 0.00 57 1011.2
20260504220839 69 182 2.0 4.0 0.00 0.00 0.00 59 1011.2
20260504220340 69 280 1.0 4.0 0.00 0.00 0.00 59 1011.2
20260504215839 69 263 1.0 4.0 0.00 0.00 0.00 58 1011.2
20260504215338 70 251 2.0 4.0 0.00 0.00 0.00 57 1011.3
20260504214859 69 277 1.0 3.0 0.00 0.00 0.00 58 1011.3
20260504214358 69 261 0.0 4.0 0.00 0.00 0.00 58 1011.4
20260504213856 70 149 2.0 4.0 0.00 0.00 0.00 57 1011.5
20260504213356 70 168 2.0 4.0 0.00 0.00 0.00 58 1011.5
20260504212838 71 195 1.0 4.0 0.00 0.00 0.00 60 1011.6
20260504212401 70 264 1.0 3.0 0.00 0.00 0.00 56 1011.6
20260504211824 70 200 2.0 5.0 0.00 0.00 0.00 56 1011.7
20260504211332 71 252 3.0 5.0 0.00 0.00 0.00 58 1011.8
20260504210837 70 174 2.0 3.0 0.00 0.00 0.00 59 1011.8
20260504210337 69 259 1.0 6.0 0.00 0.00 0.00 58 1011.9
20260504205833 69 194 2.0 8.0 0.00 0.00 0.00 59 1012.0
20260504205341 69 160 2.0 8.0 0.00 0.00 0.00 59 1012.1
20260504204845 69 189 1.0 6.0 0.00 0.00 0.00 60 1012.1
20260504204324 69 149 2.0 5.0 0.00 0.00 0.00 62 1012.2
20260504203851 68 149 3.0 6.0 0.00 0.00 0.00 62 1012.3
20260504203334 68 275 2.0 6.0 0.00 0.00 0.00 60 1012.4
20260504202836 68 130 3.0 6.0 0.00 0.00 0.00 61 1012.5
20260504202338 68 187 2.0 5.0 0.00 0.00 0.00 61 1012.5
20260504201842 69 147 2.0 5.0 0.00 0.00 0.00 62 1012.6
20260504201325 67 194 3.0 8.0 0.00 0.00 0.00 62 1012.6
20260504200836 66 143 3.0 8.0 0.00 0.00 0.00 61 1012.6
20260504200338 67 313 1.0 5.0 0.00 0.00 0.00 60 1012.7
20260504195838 67 155 2.0 4.0 0.00 0.00 0.00 64 1012.7
20260504195338 67 164 2.0 6.0 0.00 0.00 0.00 62 1012.8
20260504194838 67 185 3.0 6.0 0.00 0.00 0.00 64 1012.8
20260504194346 65 134 2.0 5.0 0.00 0.00 0.00 64 1012.8
20260504193846 66 163 2.0 5.0 0.00 0.00 0.00 64 1012.9
20260504193347 66 144 1.0 5.0 0.00 0.00 0.00 64 1012.8
20260504192825 67 218 2.0 5.0 0.00 0.00 0.00 65 1012.9
20260504192351 66 199 1.0 5.0 0.00 0.00 0.00 66 1012.9
20260504191848 65 164 3.0 5.0 0.00 0.00 0.00 67 1013.0
20260504191347 64 161 2.0 5.0 0.00 0.00 0.00 66 1013.0
20260504190846 64 260 2.0 5.0 0.00 0.00 0.00 68 1013.0
20260504190328 63 171 2.0 5.0 0.00 0.00 0.00 69 1013.1
20260504185835 63 138 2.0 9.0 0.00 0.00 0.00 71 1013.2
20260504185354 63 131 4.0 9.0 0.00 0.00 0.00 67 1013.3
20260504184853 63 158 2.0 5.0 0.00 0.00 0.00 68 1013.2
20260504184331 62 172 2.0 5.0 0.00 0.00 0.00 70 1013.3
20260504183838 61 175 1.0 4.0 0.00 0.00 0.00 72 1013.4
20260504183339 60 214 2.0 4.0 0.00 0.00 0.00 73 1013.4
20260504182841 60 176 1.0 3.0 0.00 0.00 0.00 75 1013.3
20260504182343 59 247 2.0 4.0 0.00 0.00 0.00 74 1013.2
20260504181847 59 172 1.0 5.0 0.00 0.00 0.00 75 1013.3
20260504181347 59 143 2.0 5.0 0.00 0.00 0.00 75 1013.2
20260504180906 59 237 2.0 3.0 0.00 0.00 0.00 75 1013.4
20260504180345 59 266 1.0 2.0 0.00 0.00 0.00 75 1013.3
20260504175843 59 228 1.0 3.0 0.00 0.00 0.00 76 1013.3
20260504175344 58 147 1.0 5.0 0.00 0.00 0.00 77 1013.2
20260504174848 58 150 3.0 5.0 0.00 0.00 0.00 76 1013.3
20260504174332 58 197 1.0 5.0 0.00 0.00 0.00 77 1013.3
20260504173834 58 195 3.0 5.0 0.00 0.00 0.00 76 1013.3
20260504173326 58 157 3.0 9.0 0.00 0.00 0.00 77 1013.3
20260504172849 58 183 2.0 9.0 0.00 0.00 0.00 77 1013.4
20260504172328 58 177 2.0 5.0 0.00 0.00 0.00 77 1013.3
20260504171829 58 174 2.0 4.0 0.00 0.00 0.00 76 1013.3
20260504171329 58 249 2.0 4.0 0.00 0.00 0.00 75 1013.2
20260504170829 58 154 1.0 5.0 0.00 0.00 0.00 77 1013.2
20260504170338 58 177 3.0 5.0 0.00 0.00 0.00 76 1013.2
20260504160344 57 168 3.0 7.0 0.00 0.00 0.00 78 1013.1
20260504150831 57 66 1.0 5.0 0.00 0.00 0.00 77 1012.6
20260504150334 57 160 2.0 5.0 0.00 0.00 0.00 78 1012.5
20260504141331 56 158 4.0 7.0 0.00 0.00 0.00 79 1012.1
20260504140855 56 157 1.0 4.0 0.00 0.00 0.00 80 1011.9
20260504140341 55 158 1.0 8.0 0.00 0.00 0.00 80 1011.9